Location: Unspecified
(49.0500°N, 0.0000°E)
Time: 14:00:37
(UTC+00:00)

OTV 5 (USA 277) - Pass Details

Date: 16 June 2019
Orbit: 299 x 335 km, 54.5° (Epoch: 13 July)

Event Time Altitude Azimuth Distance (km) Brightness Sun altitude
Exits shadow 23:52:23 25° 90° (E) 719 ? -17.6°
Drops below altitude 10° 23:53:53 10° 72° (ENE) 1,265 ? -17.6°
Enters shadow 00:52:37 -62° 246° (WSW) 11,591 ? -16.7°
Maximum altitude 01:25:34 38° 342° (NNW) 530 ? -15.2°
